Regional Weather Roundup
Issued by NWS

Home | Current Version | Previous Version | Graphics & Text | Print | Product List | Glossary On
Versions: 1 2 3 4 5 6 7 8 9 10 11 12 13 14 15 16 17 18 19 20 21 22 23 24 25 26 27 28 29 30 31 32 33 34 35 36 37 38 39 40 41 42 43 44 45 46 47 48 49 50
000
ASUS43 KDMX 240501
RWRIA

WEATHER ROUNDUP FOR IOWA
NATIONAL WEATHER SERVICE DES MOINES IA
1200 AM CDT MON APR 24 2017

NOTE: "FAIR" INDICATES FEW OR NO CLOUDS BELOW 12,000 FEET WITH NO
SIGNIFICANT WEATHER AND/OR OBSTRUCTIONS TO VISIBILITY.

* - THESE STATIONS ARE NOT NWS STATIONS...THUS NOT UNDER NWS
QUALITY CONTROL.  THEY ALSO DO NOT REPORT WEATHER SUCH
AS PRECIPITATION OR FOG.

IAZ001>003-012>014-020>022-031>034-043>046-240600-
   NORTHWEST IOWA

CITY           SKY/WX    TMP DP  RH WIND       PRES   REMARKS
CARROLL *      CLOUDY    50  34  53 S7        29.90S
CHEROKEE *     CLOUDY    48  35  60 S6        29.87S
DENISON *      CLOUDY    55  32  41 S14       29.89F
LE MARS *      CLOUDY    55  32  41 S12       29.85S
ORANGE CITY *  MOCLDY    54  34  47 S10       29.84F
SHELDON *      PTCLDY    52  32  46 S14       29.83S
SIOUX CITY     PTCLDY    58  30  34 S17       29.85F
SPENCER        CLOUDY    51  34  52 MISG      29.87S
STORM LAKE *   CLOUDY    48  32  53 S8        29.88F
$$

IAZ055>058-069>071-079>083-090>094-240600-
   SOUTHWEST IOWA

CITY           SKY/WX    TMP DP  RH WIND       PRES   REMARKS
ATLANTIC *     CLOUDY    54  34  47 S9        29.91F
AUDUBON *      CLOUDY    52  34  50 S7        29.92F
CLARINDA *     CLOUDY    46  36  66 SW3       29.96F
COUNCIL BLFS * CLOUDY    57  34  41 S13       29.89F
CRESTON *      CLOUDY    52  34  50 S7        29.96F
HARLAN  *      CLOUDY    54  34  47 S8        29.93F
LAMONI         CLOUDY    55  31  39 S7        29.97F
RED OAK *      CLOUDY    50  34  53 S6        29.93S
SHENANDOAH *   CLOUDY    54  36  50 S10       29.93F
$$

IAZ047>049-059>061-072>074-084-240600-
   CENTRAL IOWA

CITY           SKY/WX    TMP DP  RH WIND       PRES   REMARKS
AMES           CLEAR     48  36  63 SE6       29.93F
ANKENY *       PTCLDY    46  36  66 SE3       29.96F
BOONE *        CLEAR     52  34  50 S8        29.92F
CHARITON *     CLEAR     50  36  57 S8        29.97S
DES MOINES     CLEAR     55  34  45 SE8       29.95F
GRINNELL*      CLOUDY    52  32  47 SE8       29.98F
KNOXVILLE *    CLEAR     55  32  41 SE6       29.96S
MARSHALLTOWN   CLEAR     56  33  42 S10       29.95F
NEWTON *       CLOUDY    50  32  50 S7        29.96S
PELLA *        CLEAR     53  34  48 SE5       29.98S
PERRY *          N/A     48  32  54 SE8       29.93S
$$

IAZ004>006-015-016-023>025-035-036-240600-
   NORTH CENTRAL IOWA

CITY           SKY/WX    TMP DP  RH WIND       PRES   REMARKS
ALGONA *       CLOUDY    57  32  38 S14       29.89F
CLARION *      CLEAR     54  34  47 S13       29.91F
ESTHERVILLE    CLOUDY    50  33  52 S13       29.87F
FORT DODGE *   CLOUDY    57  30  35 S8        29.92S
MASON CITY     CLEAR     46  35  65 S8        29.93F
FOREST CITY *    N/A     46  34  61 S8        29.91F
WEBSTER CITY * CLEAR     54  32  43 S12       29.90S
IOWA FALLS *     N/A     52  35  50 S9        29.95F
$$

IAZ007>011-017>019-026>030-037>042-050>054-066-240600-
   NORTHEAST IOWA

CITY           SKY/WX    TMP DP  RH WIND       PRES   REMARKS
CEDAR RAPIDS   CLOUDY    52  34  50 SE6       29.98S
CHARLES CITY * CLEAR     54  32  43 S10       29.95S
CLINTON *      CLEAR     56  34  43 S6        30.01S
DECORAH *      CLEAR     55  34  44 S7        29.95S
DUBUQUE        CLEAR     53  33  46 S6        30.00F
MONTICELLO *   CLOUDY    48  36  61 SE3       29.98F
WATERLOO       CLOUDY    55  32  41 S9        29.95F
$$

IAZ064-065-067-068-078-240600-
   EAST CENTRAL IOWA

CITY           SKY/WX    TMP DP  RH WIND       PRES   REMARKS
DAVENPORT      CLOUDY    51  32  48 S6        30.01S
IOWA CITY      CLOUDY    50  38  63 CALM      30.00F
MUSCATINE *    CLEAR     45  36  70 CALM      30.00F
QUAD CITIES    CLEAR     46  39  76 SE3       30.00F
$$

IAZ062-063-075>077-085>089-095>099-240600-
   SOUTHEAST IOWA

CITY           SKY/WX    TMP DP  RH WIND       PRES   REMARKS
BURLINGTON     CLEAR     51  32  48 CALM      29.99F
FAIRFIELD *    CLEAR     52  32  46 SE6       29.98F
FORT MADISON * CLEAR     54  27  35 CALM      30.00F
KEOKUK *       CLEAR     50  39  66 CALM      29.99S
OSKALOOSA *      N/A     50  32  50 S8        29.98F
OTTUMWA        CLOUDY    53  32  44 S7        29.98F
WASHINGTON *   CLEAR     55  30  38 S6        30.00F
$$

ABBREVIATIONS USED IN REMARKS
   TC - TEMPERATURES IN CELSIUS
  WCI - WIND CHILL INDEX
   HX - HEAT INDEX
  VSB - VISIBILITY
$$




USA.gov is the U.S. government's official web portal to all federal, state and local government web resources and services.